EW5887 Weather Reports


Display with metric or nautical units.
time (UTC)temp
F
wind
direction
speed
MPH
gust
MPH
rain 1hr
in
rain 24hr
in
rain mn
in
humidity
%
barometer
mb
20190123120154 21 116 7.0 11.0 0.00 0.00 0.00 93 1002.2
20190123114704 23 115 8.0 10.0 0.00 0.00 0.00 93 1002.0
20190123113155 24 128 6.0 9.0 0.00 0.00 0.00 94 1002.0
20190123111749 24 125 6.0 9.0 0.00 0.00 0.00 94 1001.8
20190123110210 24 113 7.0 10.0 0.00 0.00 0.00 95 1001.6
20190123104726 24 134 3.0 9.0 0.00 0.00 0.00 95 1001.5
20190123103149 22 140 5.0 7.0 0.00 0.00 0.00 95 1001.3
20190123101625 21 147 2.0 4.0 0.00 0.00 0.00 94 1001.1
20190123100137 22 150 3.0 5.0 0.00 0.00 0.00 94 1001.0
20190123094714 22 84 4.0 10.0 0.00 0.00 0.00 95 1000.9
20190123093127 21 114 2.0 4.0 0.00 0.00 0.00 95 1000.8
20190123091615 20 113 4.0 7.0 0.00 0.00 0.00 94 1000.8
20190123090101 20 123 5.0 7.0 0.00 0.00 0.00 95 1000.4
20190123084544 18 124 2.0 4.0 0.00 0.00 0.00 95 1000.3
20190123083055 18 161 2.0 9.0 0.00 0.00 0.00 94 1000.2
20190123081603 17 121 1.0 3.0 0.00 0.00 0.00 94 1000.0
20190123080128 18 259 0.0 4.0 0.00 0.00 0.00 94 999.9
20190123074554 16 163 3.0 7.0 0.00 0.00 0.00 94 999.6
20190123073030 17 133 5.0 7.0 0.00 0.00 0.00 93 999.5
20190123071535 19 121 4.0 6.0 0.00 0.00 0.00 94 999.4
20190123070022 17 111 3.0 6.0 0.00 0.00 0.00 94 999.3
20190123064541 17 193 0.0 0.0 0.00 0.00 0.00 94 999.1
20190123063024 16 193 1.0 5.0 0.00 0.00 0.00 94 998.7
20190123061539 15 171 4.0 8.0 0.00 0.00 0.00 93 998.4
20190123060015 15 155 4.0 7.0 0.00 0.00 0.00 92 998.5
20190123054511 17 136 5.0 8.0 0.00 0.00 0.00 94 998.1
20190123053004 18 122 7.0 8.0 0.00 0.00 0.00 94 998.1
20190123051506 19 124 4.0 8.0 0.00 0.00 0.00 95 998.2
20190123050007 18 127 6.0 8.0 0.00 0.00 0.00 95 998.2
20190123044700 17 146 4.0 5.0 0.00 0.00 0.00 94 998.2
20190123043146 18 109 6.0 8.0 0.00 0.00 0.00 95 997.8
20190123041638 18 134 6.0 8.0 0.00 0.00 0.00 94 998.0
20190123040219 19 146 7.0 8.0 0.00 0.00 0.00 95 997.9
20190123034651 19 126 5.0 8.0 0.00 0.00 0.00 95 997.7
20190123033134 18 110 5.0 7.0 0.00 0.00 0.00 95 997.6
20190123031730 18 136 5.0 7.0 0.00 0.00 0.00 94 997.5
20190123030155 17 121 6.0 8.0 0.00 0.00 0.00 94 997.5
20190123024707 17 130 5.0 7.0 0.00 0.00 0.00 94 997.5
20190123023135 18 125 7.0 9.0 0.00 0.00 0.00 94 997.3
20190123021614 18 121 6.0 8.0 0.00 0.00 0.00 95 997.5
20190123020215 16 113 7.0 9.0 0.00 0.00 0.00 94 997.5
20190123014706 17 124 7.0 10.0 0.00 0.00 0.00 94 997.2
20190123013151 18 103 8.0 10.0 0.00 0.00 0.00 95 997.1
20190123011603 18 122 6.0 10.0 0.00 0.00 0.00 94 997.3
20190123010128 18 142 7.0 10.0 0.00 0.00 0.00 95 997.2
20190123004632 18 128 8.0 11.0 0.00 0.00 0.00 94 997.3
20190123003101 18 128 8.0 10.0 0.00 0.00 0.00 95 997.2
20190123001624 18 120 7.0 9.0 0.00 0.00 0.00 95 997.1
20190123000037 18 134 8.0 10.0 0.00 0.00 0.00 95 997.0
20190122234557 17 105 6.0 9.0 0.00 0.00 0.00 95 996.9
20190122233112 17 133 9.0 11.0 0.00 0.00 0.00 95 996.7
20190122231622 17 128 9.0 11.0 0.00 0.00 0.00 95 996.6
20190122230128 17 131 9.0 10.0 0.00 0.00 0.00 95 996.6
20190122224619 16 113 7.0 8.0 0.00 0.00 0.00 95 996.7
20190122223059 15 115 4.0 6.0 0.00 0.00 0.00 94 996.6
20190122221540 15 178 4.0 5.0 0.00 0.00 0.00 94 996.5
20190122220050 15 129 7.0 8.0 0.00 0.00 0.00 94 996.4
20190122214527 14 113 3.0 6.0 0.00 0.00 0.00 94 996.4
20190122213039 13 110 6.0 7.0 0.00 0.00 0.00 94 996.3
20190122211543 11 225 2.0 4.0 0.00 0.00 0.00 93 996.6
20190122210045 11 151 5.0 7.0 0.00 0.00 0.00 93 996.4
20190122204523 12 143 2.0 5.0 0.00 0.00 0.00 93 996.6
20190122203016 12 148 2.0 5.0 0.00 0.00 0.00 93 996.3
20190122201510 13 159 2.0 4.0 0.00 0.00 0.00 93 996.2
20190122200034 16 115 6.0 7.0 0.00 0.00 0.00 94 995.9
20190122194513 13 130 4.0 5.0 0.00 0.00 0.00 93 996.1
20190122193237 14 117 2.0 4.0 0.00 0.00 0.00 93 995.9
20190122191630 16 121 6.0 7.0 0.00 0.00 0.00 95 995.8
20190122190241 16 111 5.0 7.0 0.00 0.00 0.00 94 995.8
20190122184700 17 129 1.0 7.0 0.00 0.00 0.00 94 995.6
20190122183225 18 130 7.0 8.0 0.00 0.00 0.00 95 995.4
20190122181906 17 123 4.0 7.0 0.00 0.00 0.00 95 995.6
20190122180128 17 126 4.0 6.0 0.00 0.00 0.00 95 995.4
20190122174608 15 123 1.0 5.0 0.00 0.00 0.00 93 995.4
20190122173154 16 113 5.0 7.0 0.00 0.00 0.00 94 995.2
20190122171640 14 117 3.0 6.0 0.00 0.00 0.00 92 995.1
20190122170226 15 167 3.0 5.0 0.00 0.00 0.00 92 995.0
20190122164702 15 186 0.0 3.0 0.00 0.00 0.00 92 994.9
20190122163113 16 183 4.0 5.0 0.00 0.00 0.00 93 994.7
20190122161550 15 194 0.0 2.0 0.00 0.00 0.00 92 994.7
20190122160117 16 194 2.0 4.0 0.00 0.00 0.00 93 994.4
20190122154642 16 165 0.0 3.0 0.00 0.00 0.00 94 994.5
20190122153114 15 160 0.0 3.0 0.00 0.00 0.00 93 994.4
20190122151621 14 160 1.0 3.0 0.00 0.00 0.00 92 994.4
20190122150047 16 277 0.0 4.0 0.00 0.00 0.00 92 994.3
20190122144550 16 231 0.0 3.0 0.00 0.00 0.00 93 994.1
20190122143111 15 194 3.0 7.0 0.00 0.00 0.00 92 994.0
20190122141539 15 203 0.0 2.0 0.00 0.00 0.00 91 993.7
20190122140102 15 197 3.0 6.0 0.00 0.00 0.00 91 993.6
20190122134547 17 272 2.0 3.0 0.00 0.00 0.00 93 993.5
20190122133046 15 215 1.0 3.0 0.00 0.00 0.00 91 993.5
20190122131533 15 188 0.0 3.0 0.00 0.00 0.00 90 993.4
20190122130038 14 150 2.0 5.0 0.00 0.00 0.00 89 993.4
20190122124526 16 251 1.0 2.0 0.00 0.00 0.00 90 993.3
20190122123115 17 255 1.0 4.0 0.00 0.00 0.00 91 993.1
20190122121530 16 111 0.0 0.0 0.00 0.00 0.00 89 992.9